TimeEDT,TemperatureF,Dew PointF,Humidity,Sea Level PressureIn,VisibilityMPH,Wind Direction,Wind SpeedMPH,Gust SpeedMPH,PrecipitationIn,Events,Conditions,WindDirDegrees,DateUTC
12:51 AM,61.0,48.0,62,29.97,10.0,NW,11.5,20.7,N/A,,Overcast,320,2013-08-14 04:51:00
1:51 AM,61.0,48.9,64,29.97,10.0,NW,11.5,19.6,N/A,,Overcast,310,2013-08-14 05:51:00
2:51 AM,60.1,48.9,67,29.96,10.0,NW,15.0,20.7,0.00,,Overcast,320,2013-08-14 06:51:00
3:10 AM,57.2,48.2,72,29.97,10.0,WNW,10.4,25.3,0.00,Rain,Light Rain,300,2013-08-14 07:10:00
3:22 AM,59.0,48.2,67,29.97,10.0,NNW,15.0,24.2,0.00,Rain,Light Rain,330,2013-08-14 07:22:00
3:51 AM,59.0,48.9,69,29.97,10.0,NW,13.8,23.0,0.00,,Overcast,310,2013-08-14 07:51:00
4:12 AM,59.0,48.2,67,29.97,10.0,NNW,13.8,21.9,N/A,,Mostly Cloudy,330,2013-08-14 08:12:00
4:28 AM,59.0,48.2,67,29.97,10.0,NW,12.7,23.0,N/A,,Mostly Cloudy,310,2013-08-14 08:28:00
4:38 AM,59.0,48.2,67,29.97,10.0,NW,12.7,-,N/A,,Mostly Cloudy,320,2013-08-14 08:38:00
4:51 AM,59.0,48.9,69,29.97,10.0,NW,18.4,23.0,N/A,,Mostly Cloudy,320,2013-08-14 08:51:00
5:36 AM,59.0,48.2,67,29.99,10.0,NW,11.5,20.7,N/A,,Mostly Cloudy,320,2013-08-14 09:36:00
5:51 AM,57.9,48.9,72,29.99,10.0,NNW,12.7,20.7,N/A,,Overcast,340,2013-08-14 09:51:00
6:51 AM,57.9,50.0,75,30.01,10.0,NNW,10.4,18.4,N/A,,Overcast,340,2013-08-14 10:51:00
7:51 AM,59.0,51.1,75,30.02,10.0,NNW,11.5,18.4,N/A,,Overcast,330,2013-08-14 11:51:00
8:51 AM,60.1,51.1,72,30.05,10.0,NNW,8.1,-,N/A,,Overcast,340,2013-08-14 12:51:00
9:48 AM,60.8,50.0,68,30.06,10.0,NNW,8.1,16.1,N/A,,Mostly Cloudy,340,2013-08-14 13:48:00
9:51 AM,60.1,50.0,69,30.06,10.0,NW,10.4,16.1,N/A,,Mostly Cloudy,320,2013-08-14 13:51:00
9:58 AM,60.8,48.2,63,30.06,10.0,NNW,10.4,-,N/A,,Mostly Cloudy,340,2013-08-14 13:58:00
10:31 AM,60.8,48.2,63,30.08,10.0,NNW,9.2,16.1,N/A,,Overcast,340,2013-08-14 14:31:00
10:40 AM,62.6,48.2,59,30.08,10.0,NNW,10.4,-,N/A,,Mostly Cloudy,340,2013-08-14 14:40:00
10:49 AM,62.6,48.2,59,30.08,10.0,NW,9.2,-,N/A,,Mostly Cloudy,320,2013-08-14 14:49:00
10:51 AM,63.0,48.9,60,30.08,10.0,NW,9.2,-,N/A,,Mostly Cloudy,320,2013-08-14 14:51:00
11:22 AM,62.6,50.0,63,30.09,10.0,NW,12.7,-,N/A,,Mostly Cloudy,310,2013-08-14 15:22:00
11:51 AM,64.0,48.9,58,30.09,10.0,WNW,8.1,-,N/A,,Mostly Cloudy,300,2013-08-14 15:51:00
12:51 PM,64.9,46.9,52,30.11,10.0,NW,9.2,-,N/A,,Mostly Cloudy,320,2013-08-14 16:51:00
1:51 PM,66.0,48.0,52,30.10,10.0,NW,10.4,-,N/A,,Scattered Clouds,310,2013-08-14 17:51:00
2:51 PM,66.0,46.9,50,30.10,10.0,WNW,6.9,-,N/A,,Scattered Clouds,290,2013-08-14 18:51:00
3:51 PM,66.9,46.9,49,30.10,10.0,WNW,10.4,-,N/A,,Clear,300,2013-08-14 19:51:00
4:51 PM,66.9,48.0,51,30.11,10.0,West,9.2,-,N/A,,Clear,280,2013-08-14 20:51:00
5:51 PM,68.0,48.0,49,30.11,10.0,West,9.2,-,N/A,,Clear,260,2013-08-14 21:51:00
6:51 PM,66.9,48.9,52,30.10,10.0,West,9.2,-,N/A,,Clear,260,2013-08-14 22:51:00
7:51 PM,66.0,48.9,54,30.10,10.0,WSW,6.9,-,N/A,,Clear,250,2013-08-14 23:51:00
8:51 PM,62.1,52.0,70,30.11,10.0,SSW,5.8,-,N/A,,Scattered Clouds,200,2013-08-15 00:51:00
9:51 PM,66.0,51.1,59,30.13,10.0,NW,11.5,18.4,N/A,,Mostly Cloudy,310,2013-08-15 01:51:00
10:51 PM,64.9,50.0,58,30.13,10.0,NNW,8.1,-,N/A,,Partly Cloudy,330,2013-08-15 02:51:00
11:51 PM,64.9,48.0,54,30.14,10.0,NNW,4.6,-,N/A,,Clear,330,2013-08-15 03:51:00